Weather History for Duluth, MN

Change the Weather History Date:

Saturday, November 26, 2011

  Actual Average Record
Temperature  
Mean Temperature 34 °F 23 °F  
Max Temperature 38 °F 30 °F 55 °F (1960)
Min Temperature 30 °F 16 °F -9 °F (1977)
Degree Days  
Heating Degree Days 31 42  
Month to date heating degree days 803 916  
Since 1 July heating degree days 1655 2041  
Cooling Degree Days 0 0  
Month to date cooling degree days 0 0  
Year to date cooling degree days 314 204  
Moisture  
Dew Point 30 °F    
Average Humidity 85    
Maximum Humidity 92    
Minimum Humidity 78    
Precipitation  
Precipitation 0.23 in 0.06 in 1.47 in (1965)
Month to date precipitation 0.51 1.86  
Year to date precipitation 25.42 29.52  
Snow  
Snow 0.30 in 0.60 in 14.70 in (1965)
Month to date snowfall 2.4 11.4  
Since 1 July snowfall 2.4 13.8  
Since 1 September snowfall 2.4 13.8  
Snow Depth 0.00 in    
Sea Level Pressure  
Sea Level Pressure 29.85 in    
Wind  
Wind Speed 13 mph (North)    
Max Wind Speed 24 mph    
Max Gust Speed 31 mph    
Visibility 5 miles    
Events Fog , Rain , Snow    
T = Trace of Precipitation, MM = Missing Value Source: NWS Daily Summary

Daily Weather History Graph

Daily Weather History Graph

Search for Another Location

Airport:

Trip Planner

Search our weather history database for the weather conditions in past years. The results will help you decide how hot, cold, wet, or windy it might be!

Date:

Astronomy

Nov. 26, 2011 Rise Set
Actual Time 7:26 AM CST 4:25 PM CST
Civil Twilight 6:52 AM CST 4:59 PM CST
Nautical Twilight 6:14 AM CST 5:36 PM CST
Astronomical Twilight 5:38 AM CST 6:13 PM CST
Moon 9:01 AM CST (11/26) 5:53 PM CST (11/26)
Length of Visible Light 10h 06m
Length of Day
8h 58m
Waxing Crescent, 3% of the Moon is Illuminated
Nov 26
Waxing Crescent
Dec 2
First Quarter
Dec 10
Full
Dec 17
Last Quarter
Dec 24
New

Hourly Weather History & Observations

Time (CST) Temp. Windchill Dew Point Humidity Pressure Visibility Wind Dir Wind Speed Gust Speed Precip Events Conditions
12:50 AM 37.4 °F 28.5 °F 35.6 °F 93% 29.75 in 0.5 mi East 15.0 mph 20.7 mph 0.00 in Fog Light Drizzle
12:55 AM 37.9 °F 29.2 °F 36.0 °F 93% 29.79 in 0.5 mi East 15.0 mph 20.7 mph 0.00 in Fog Light Drizzle
1:14 AM 37.4 °F 27.8 °F 35.6 °F 93% 29.75 in 0.2 mi East 17.3 mph 23.0 mph 0.00 in Fog Light Drizzle
1:46 AM 37.4 °F 27.5 °F 35.6 °F 93% 29.74 in 0.8 mi ENE 18.4 mph 24.2 mph 0.01 in Rain Light Rain
1:55 AM 37.9 °F 28.9 °F 36.0 °F 93% 29.77 in 0.8 mi ENE 16.1 mph 24.2 mph 0.01 in Rain Light Rain
2:09 AM 37.4 °F 27.2 °F 35.6 °F 93% 29.73 in 1.0 mi ENE 19.6 mph 31.1 mph 0.01 in Rain Light Rain
2:55 AM 37.0 °F 27.0 °F 35.1 °F 93% 29.78 in 1.0 mi ENE 18.4 mph - 0.02 in Rain Light Rain
3:55 AM 37.0 °F 27.4 °F 34.0 °F 89% 29.79 in 1.5 mi ENE 17.3 mph 27.6 mph 0.01 in Rain Light Rain
4:39 AM 35.6 °F 25.2 °F 33.8 °F 93% 29.74 in 2.0 mi East 18.4 mph 27.6 mph 0.01 in Rain Light Rain
4:55 AM 36.0 °F 25.6 °F 34.0 °F 93% 29.79 in 3.0 mi East 18.4 mph 25.3 mph 0.01 in Rain Light Rain
5:09 AM 35.6 °F 25.5 °F 33.8 °F 93% 29.75 in 3.0 mi ENE 17.3 mph 26.5 mph 0.00 in Rain Light Rain
5:55 AM 35.6 °F 26.2 °F 33.8 °F 93% 29.74 in 4.0 mi ENE 15.0 mph - N/A Rain Light Rain
6:55 AM 37.0 °F 28.5 °F 34.0 °F 89% 29.77 in 10.0 mi East 13.8 mph 24.2 mph 0.00 in Rain Light Rain
7:55 AM 36.0 °F 28.0 °F 34.0 °F 93% 29.79 in 10.0 mi East 11.5 mph 24.2 mph 0.00 in   Overcast
8:55 AM 37.0 °F 29.8 °F 34.0 °F 89% 29.80 in 7.0 mi East 10.4 mph - 0.02 in Rain Light Rain
9:55 AM 37.0 °F 31.0 °F 34.0 °F 89% 29.81 in 2.5 mi NNE 8.1 mph - 0.05 in Rain Rain
10:07 AM 37.4 °F 32.8 °F 33.8 °F 87% 29.78 in 3.0 mi NNW 5.8 mph - 0.02 in Rain Light Rain
10:36 AM 37.4 °F 32.1 °F 33.8 °F 87% 29.77 in 3.0 mi North 6.9 mph - 0.06 in Rain Light Rain
10:55 AM 37.0 °F 31.6 °F 34.0 °F 89% 29.82 in 10.0 mi NNW 6.9 mph - 0.07 in Rain Light Rain
11:55 AM 36.0 °F 29.6 °F 33.1 °F 89% 29.82 in 10.0 mi NNW 8.1 mph - 0.02 in Rain Light Rain
12:28 PM 35.6 °F 29.2 °F 32.0 °F 87% 29.77 in 2.5 mi NNW 8.1 mph - 0.01 in Rain , Snow Light Rain
12:55 PM 34.0 °F 28.0 °F 30.9 °F 89% 29.83 in 2.5 mi NNW 6.9 mph - 0.02 in Snow Light Snow
1:55 PM 35.1 °F 27.4 °F 32.0 °F 89% 29.84 in 2.5 mi NNW 10.4 mph - 0.00 in   Overcast
2:03 PM 35.6 °F 29.2 °F 30.2 °F 81% 29.79 in 10.0 mi NNW 8.1 mph - N/A   Overcast
2:55 PM 34.0 °F 25.5 °F 30.9 °F 89% 29.86 in 5.0 mi NNW 11.5 mph 18.4 mph N/A   Overcast
3:55 PM 33.8 °F 24.8 °F 30.2 °F 87% 29.84 in 8.0 mi NNW 12.7 mph 20.7 mph N/A Snow Light Snow
4:03 PM 33.8 °F 25.3 °F 28.4 °F 81% 29.85 in 3.0 mi NW 11.5 mph 19.6 mph 0.00 in Snow Light Snow
4:09 PM 33.8 °F 24.8 °F 28.4 °F 81% 29.85 in 2.0 mi NNW 12.7 mph 20.7 mph 0.00 in Snow Light Snow
4:16 PM 33.8 °F 26.4 °F 28.4 °F 81% 29.85 in 1.8 mi NNW 9.2 mph 19.6 mph 0.00 in Snow Light Snow
4:22 PM 33.8 °F 24.3 °F 28.4 °F 81% 29.86 in 1.8 mi NNW 13.8 mph 21.9 mph 0.00 in Snow Light Snow
4:33 PM 33.8 °F 25.3 °F 28.4 °F 81% 29.86 in 1.8 mi NNW 11.5 mph 20.7 mph 0.00 in Snow Light Snow
4:37 PM 33.8 °F 24.8 °F 28.4 °F 81% 29.86 in 2.5 mi NNW 12.7 mph 20.7 mph 0.00 in Snow Light Snow
4:39 PM 33.8 °F 25.8 °F 28.4 °F 81% 29.86 in 3.0 mi NNW 10.4 mph 20.7 mph N/A Snow Light Snow
4:55 PM 33.1 °F 22.2 °F 28.9 °F 85% 29.93 in 6.0 mi NNW 17.3 mph 25.3 mph 0.00 in Snow Light Snow
5:10 PM 33.8 °F 24.8 °F 28.4 °F 81% 29.88 in 9.0 mi NNW 12.7 mph 24.2 mph 0.00 in   Overcast
5:26 PM 32.0 °F 22.1 °F 28.4 °F 87% 29.89 in 2.5 mi NNW 13.8 mph 23.0 mph 0.00 in Snow Light Snow
5:33 PM 32.0 °F 22.1 °F 28.4 °F 87% 29.89 in 3.0 mi NNW 13.8 mph 20.7 mph 0.00 in Snow Light Snow
5:55 PM 32.0 °F 22.5 °F 26.6 °F 80% 29.89 in 7.0 mi NNW 12.7 mph 31.1 mph N/A Snow Light Snow
6:05 PM 32.0 °F 22.5 °F 28.4 °F 87% 29.89 in 5.0 mi NNW 12.7 mph 24.2 mph N/A Snow Light Snow
6:47 PM 32.0 °F 22.1 °F 28.4 °F 87% 29.91 in 4.0 mi NNW 13.8 mph 23.0 mph 0.00 in Snow Light Snow
6:55 PM 32.0 °F 21.2 °F 27.0 °F 82% 29.96 in 4.0 mi NNW 16.1 mph 26.5 mph 0.00 in Snow Light Snow
7:06 PM 32.0 °F 22.1 °F 28.4 °F 87% 29.91 in 6.0 mi NNW 13.8 mph - 0.00 in Snow Light Snow
7:16 PM 32.0 °F 22.1 °F 26.6 °F 80% 29.91 in 2.5 mi NNW 13.8 mph 21.9 mph 0.00 in Snow Light Snow
7:25 PM 32.0 °F 21.6 °F 26.6 °F 80% 29.91 in 3.0 mi NNW 15.0 mph 24.2 mph 0.00 in Snow Light Snow
7:27 PM 32.0 °F 22.5 °F 28.4 °F 87% 29.91 in 3.0 mi NW 12.7 mph 24.2 mph 0.00 in Snow Light Snow
7:34 PM 32.0 °F 21.6 °F 26.6 °F 80% 29.91 in 7.0 mi NNW 15.0 mph 27.6 mph 0.00 in Snow Light Snow
7:47 PM 32.0 °F 21.2 °F 26.6 °F 80% 29.92 in 8.0 mi NNW 16.1 mph 25.3 mph 0.00 in Snow Light Snow
7:55 PM 32.0 °F 22.5 °F 27.0 °F 82% 29.98 in 9.0 mi NNW 12.7 mph 25.3 mph 0.00 in Snow Light Snow
8:55 PM 30.2 °F 18.9 °F 26.6 °F 86% 29.95 in 9.0 mi NNW 16.1 mph 29.9 mph N/A Snow Light Snow
9:55 PM 30.9 °F 19.4 °F 26.1 °F 82% 30.01 in 9.0 mi NNW 17.3 mph 24.2 mph 0.00 in Snow Light Snow
10:15 PM 30.2 °F 19.8 °F 24.8 °F 80% 29.96 in 8.0 mi NNW 13.8 mph 19.6 mph 0.00 in Snow Light Snow
10:30 PM 30.2 °F 18.1 °F 24.8 °F 80% 29.96 in 9.0 mi NNW 18.4 mph 27.6 mph 0.00 in Snow Light Snow
10:55 PM 30.0 °F 19.5 °F 25.0 °F 82% 30.03 in 9.0 mi NW 13.8 mph 24.2 mph 0.00 in Snow Light Snow
11:55 PM 30.0 °F 20.5 °F 24.1 °F 79% 30.03 in 9.0 mi NNW 11.5 mph 27.6 mph 0.00 in Snow Light Snow